Regional Weather Roundup
Issued by NWS

Home | Current Version | Previous Version | Graphics & Text | Print | Product List | Glossary On
Versions: 1 2 3 4 5 6 7 8 9 10 11 12 13 14 15 16 17 18 19 20 21 22 23 24 25 26 27 28 29 30 31 32 33 34 35 36 37 38 39 40 41 42 43 44 45 46 47 48 49 50
000
ASUS43 KLOT 031408
RWRIL

ILLINOIS REGIONAL WEATHER ROUNDUP
NATIONAL WEATHER SERVICE CHICAGO/ROMEOVILLE IL
900 AM CDT MON AUG 03 2015

NOTE: "FAIR" INDICATES FEW OR NO CLOUDS BELOW 12,000 FEET WITH NO
SIGNIFICANT WEATHER AND/OR OBSTRUCTIONS TO VISIBILITY.

* THESE STATIONS ARE NOT UNDER NWS QUALITY CONTROL. THEY ALSO MAY NOT
  REPORT WEATHER SUCH AS PRECIPITATION OR FOG.

ILZ001-002-007-009-015-016-024-031500-
NORTHWEST ILLINOIS

CITY           SKY/WX    TMP DP  RH WIND       PRES   REMARKS
MOLINE         SUNNY     74  56  53 N9        29.89R
STERLING*      SUNNY     73  59  60 N9        29.86R
SAVANNA*       SUNNY     73  51  46 N10G16    29.89S
$$

ILZ003-004-008-010-011-017-018-031500-
NORTH CENTRAL ILLINOIS

CITY           SKY/WX    TMP DP  RH WIND       PRES   REMARKS
ROCKFORD       SUNNY     73  53  49 N12       29.89R
FREEPORT*      SUNNY     70  54  57 N6        29.91R
ROCHELLE*      SUNNY     70  60  71 NW10      29.88R
DE KALB*       SUNNY     72  62  72 NW10      29.88R
PERU*          SUNNY     73  59  61 N13       29.87R
$$

ILZ005-006-012>014-019>023-031500-
NORTHEAST ILLINOIS

CITY           SKY/WX    TMP DP  RH WIND       PRES   REMARKS
CHICAGO-OHARE  MOSUNNY   73  58  59 N14       29.84R
CHICAGO-MIDWAY MOSUNNY   76  59  55 NW13      29.83R
AURORA         MOSUNNY   73  60  63 N14       29.86R
LANSING*       SUNNY     75  64  69 NW9       29.83S
JOLIET*        SUNNY     75  64  67 N8        29.84S
WAUKEGAN       SUNNY     71  59  65 VRB5      29.84R
DUPAGE AIRPORT SUNNY     73  59  61 N10       29.85R
KANKAKEE*      SUNNY     78  63  61 N8        29.84S
WHEELING       NOT AVBL
MORRIS*        SUNNY     74  64  70 N3        29.84R
ROMEOVILLE*    SUNNY     73  63  72 N9        29.84S
NORTHERLY ISL    N/A     74  60  61 NW6         N/A
$$

LMZ740>746-031500-
SOUTHERN LAKE MICHIGAN

STATION/POSITION SKY/WX   TEMP    WIND        PRES    VSBY  WAVE
                          AIR SEA DIR/SP/G                  HT/PER
                          (F)     (DEG/KT/KT) (MB)    (MI)  (FT/S)
HARRISON CRIB              70     310/ 10/ 11   N/A
BURNHAM HARBOR             74     330/  7/ 10   N/A
CALUMET HARBOR             73     310/  4/  8   N/A
BURNS HARBOR               72     300/  5/  5 1010.5R
MICHIGAN CITY              72     260/  9/ 10   N/A
MICHIGAN CITY 6N           72 73  330/  8/ 10   N/A           1/ 5
ST. JOSEPH                 71 73  330/ 10/ 12   N/A           2/ 4
$$

ILZ025>027-034>036-040-047-049-050-058-095>099-031500-
WEST-CENTRAL ILLINOIS

CITY           SKY/WX    TMP DP  RH WIND       PRES   REMARKS
QUINCY         SUNNY     74  63  68 NW8       29.92R
GALESBURG*     SUNNY     72  62  70 N9        29.90R
MACOMB*        SUNNY     73  64  73 NW9       29.92R
JACKSONVILLE*  SUNNY     76  66  71 W5        29.90R
PITTSFIELD*    SUNNY     76  64  67 W5        29.93R
$$

ILZ028>032-037-038-041>044-048-051>054-059>061-031500-
CENTRAL ILLINOIS

CITY           SKY/WX    TMP DP  RH WIND       PRES   REMARKS
PONTIAC        SUNNY     77  68  75 NW7       29.86R
BLOOMINGTON    SUNNY     76  67  73 NW6       29.87R
DECATUR        SUNNY     79  67  66 NW9       29.86R HX  81
PEORIA         SUNNY     77  64  64 VRB6      29.87R
LACON*         SUNNY     73  64  72 N8        29.86R
LINCOLN*       SUNNY     78  66  67 NW5       29.86S HX  80
SPRINGFIELD    SUNNY     75  67  76 NW7       29.88R
TAYLORVILLE    SUNNY     73  68  83 W6        29.88R
$$

ILZ033-039-045-046-055>057-062-063-031500-
EAST-CENTRAL ILLINOIS

CITY           SKY/WX    TMP DP  RH WIND       PRES   REMARKS
CHAMPAIGN      SUNNY     77  70  79 W8        29.85R
DANVILLE*      SUNNY     76  71  82 W5        29.82R
RANTOUL*       SUNNY     79  70  75 NW7       29.85R HX  81
MATTOON        SUNNY     79  67  66 W6        29.85S HX  81
PARIS*         SUNNY     78  71  78 W6        29.85S HX  81
$$

ILZ079-100>102-031500-
SOUTHWEST ILLINOIS

CITY           SKY/WX    TMP DP  RH WIND       PRES   REMARKS
ALTON          MOSUNNY   79  64  61 SW5       29.90  HX  81
BELLEVILLE     SUNNY     83  68  61 W6        29.89R HX  86
CAHOKIA*       SUNNY     84  63  49 W7        29.90R HX  85
SPARTA*        MOSUNNY   81  70  70 W3        29.92S HX  84
$$

ILZ064>066-069>071-074>076-080>082-084>086-088>090-092>094-031500-
SOUTH-CENTRAL ILLINOIS

CITY           SKY/WX    TMP DP  RH WIND       PRES   REMARKS
CARBONDALE     MOSUNNY   82  70  66 VRB5      29.91R HX  86
CAIRO*         SUNNY     81  72  75 W5        29.92S HX  85
EFFINGHAM*     SUNNY     79  62  55 W8        29.88S HX  80
MARION         MOSUNNY   82  70  65 W7        29.92R HX  86
MT. VERNON     SUNNY     81  66  61 W6        29.90S HX  83
CENTRALIA*     SUNNY     82  64  54 W6        29.89S HX  83
SALEM*         SUNNY     83  65  55 W7        29.88F HX  85
METROPOLIS*    SUNNY     81  74  80 W5        29.92S HX  86
$$

ILZ067-068-072-073-078-083-087-091-031500-
SOUTHEAST ILLINOIS

CITY           SKY/WX    TMP DP  RH WIND       PRES   REMARKS
LAWRENCEVILLE  SUNNY     81  71  71 W9        29.86S HX  85
FLORA*         SUNNY     81  66  60 W9        29.88S HX  83
FAIRFIELD*     MOSUNNY   80  70  70 W3        29.87S HX  84
HARRISBURG*    SUNNY     82  71  69 W10       29.91R HX  86
ROBINSON*      SUNNY     79  70  74 W8        29.86S HX  82
CARMI*         SUNNY     81  68  63 W8        29.88S HX  84
$$

ABBREVIATIONS USED IN REMARKS
   TC - TEMPERATURE IN CELSIUS
  WCI - WIND CHILL INDEX
   HX - HEAT INDEX
  VSB - VISIBILITY
$$




USA.gov is the U.S. government's official web portal to all federal, state and local government web resources and services.